This demonstration page uses our WeatherBlox Daily Observations layout. Learn more.

Left ArrowRight Arrow

41.86663, -103.66717

Hourly Observations for December 28, 2020

Temp ( °F °C ) Dew Point ( °F °C ) Humidity (%) Winds ( mph kmh ) Pressure ( in mb ) Visibility ( mi km ) Precip ( " mm )
12:53 am 00:53 Cloudy 26 -3.3 23 -5 88 88 NNW 7 11 30.23 1024 10 16 0.00 0.00
1:53 am 01:53 Clear 23 -5 20 -6.7 88 88 NNW 5 7 30.25 1024 10 16 0.00 0.00
2:53 am 02:53 Clear 23 -5 19 -7.2 85 85 Calm 30.25 1024 10 16 0.00 0.00
3:42 am 03:42 Mostly Clear 19 -7.2 15 -9.4 84 84 WNW 6 9 30.42 1030 10 16 0.00 0.00
3:53 am 03:53 Clear 19 -7.2 16 -8.9 88 88 NW 6 9 30.27 1025 10 16 0.00 0.00
4:53 am 04:53 Partly Cloudy 15 -9.4 11 -11.7 84 84 Calm 30.31 1026 10 16 0.00 0.00
5:03 am 05:03 Mostly Cloudy 16 -8.9 11 -11.7 80 80 NW 6 9 30.46 1032 10 16 0.00 0.00
5:29 am 05:29 Partly Cloudy 15 -9.4 11 -11.7 84 84 NW 7 11 30.47 1032 10 16 0.00 0.00
5:53 am 05:53 Mostly Clear 14 -10 10 -12.2 84 84 NNW 7 11 30.32 1027 10 16 0.00 0.00
6:53 am 06:53 Clear 14 -10 10 -12.2 84 84 NW 5 7 30.34 1028 10 16 0.00 0.00
7:53 am 07:53 Sunny 13 -10.6 9 -12.8 84 84 WNW 3 6 30.36 1028 10 16 0.00 0.00
8:53 am 08:53 Sunny 19 -7.2 15 -9.4 84 84 WNW 3 6 30.37 1028 10 16 0.00 0.00
9:30 am 09:30 Mostly Sunny 21 -6.1 17 -8.3 85 85 N 3 6 30.47 1032 10 16 0.00 0.00
9:53 am 09:53 Sunny 23 -5 19 -7.2 85 85 Calm 30.37 1029 10 16 0.00 0.00
10:53 am 10:53 Sunny 29 -1.7 24 -4.4 82 82 Calm 30.34 1028 10 16 0.00 0.00
11:53 am 11:53 Sunny 34 1.1 26 -3.3 73 73 SSE 7 11 30.29 1026 10 16 0.00 0.00
12:53 pm 12:53 Sunny 36 2.2 25 -3.9 64 64 SE 12 19 30.23 1024 10 16 0.00 0.00
1:53 pm 13:53 Mostly Cloudy 36 2.2 22 -5.6 57 57 ESE 13 20 30.23 1024 10 16 0.00 0.00
2:53 pm 14:53 Cloudy 35 1.7 23 -5 61 61 SE 12 19 30.23 1024 10 16 0.00 0.00
3:44 pm 15:44 Cloudy with Light Snow 33 0.6 26 -3.3 75 75 SE 18 30 30.23 1024 3 4 0.00 0.00
3:53 pm 15:53 Cloudy with Light Snow 32 0 26 -3.3 79 79 SE 16 26 30.23 1024 2 3 0.00 0.00
4:20 pm 16:20 Cloudy with Light Snow 31 -0.6 27 -2.8 85 85 SE 16 26 30.24 1024 2 3 0.01 0.25
4:32 pm 16:32 Cloudy with Light Snow 31 -0.6 27 -2.8 85 85 ESE 15 24 30.24 1024 5 8 0.01 0.25
4:53 pm 16:53 Cloudy with Light Snow 31 -0.6 26 -3.3 82 82 ESE 17 28 30.24 1024 3 5 0.01 0.25
4:57 pm 16:57 Cloudy with Light Snow 30 -1.1 26 -3.3 85 85 ESE 17 28 30.24 1024 3 4 0.00 0.00
5:08 pm 17:08 Cloudy with Light Snow 30 -1.1 27 -2.8 88 88 ESE 16 26 30.24 1024 2 2 0.00 0.00
5:17 pm 17:17 Cloudy with Light Snow 30 -1.1 27 -2.8 88 88 ESE 14 22 30.23 1024 2 2 0.01 0.25
5:35 pm 17:35 Cloudy with Light Snow 30 -1.1 27 -2.8 88 88 ESE 17 28 30.23 1024 1 2 0.01 0.25
5:53 pm 17:53 Cloudy with Light Snow 30 -1.1 27 -2.8 88 88 ESE 16 26 30.22 1023 1 2 0.02 0.51
6:08 pm 18:08 Cloudy with Light Snow 30 -1.1 27 -2.8 88 88 ESE 16 26 30.21 1023 1 2 0.01 0.25
6:53 pm 18:53 Windy with Snow Likely 31 -0.6 27 -2.8 85 85 ESE 23 37 30.19 1022 1 2 0.03 0.76
7:13 pm 19:13 Windy with Snow Likely 31 -0.6 27 -2.8 85 85 ESE 21 33 30.18 1022 3 4 0.00 0.00
7:38 pm 19:38 Windy with Snow Likely 30 -1.1 27 -2.8 88 88 ESE 20 31 30.18 1022 2 3 0.01 0.25
7:48 pm 19:48 Cloudy with Light Snow 30 -1 27 -3 86 86 ESE 18 30 30.17 1022 2 2 0.02 0.51
7:53 pm 19:53 Windy with Snow Likely 30 -1.1 27 -2.8 88 88 ESE 20 31 30.17 1022 2 2 0.02 0.51
8:06 pm 20:06 Windy with Snow Likely 30 -1.1 27 -2.8 88 88 ESE 20 31 30.17 1022 2 2 0.00 0.00
8:21 pm 20:21 Windy with Snow Likely 30 -1.1 27 -2.8 88 88 ESE 20 31 30.16 1021 2 3 0.00 0.00
8:28 pm 20:28 Cloudy with Light Snow 30 -1.1 27 -2.8 88 88 ESE 17 28 30.15 1021 2 3 0.00 0.00
8:53 pm 20:53 Cloudy with Light Snow 30 -1.1 27 -2.8 88 88 ESE 17 28 30.13 1020 2 2 0.01 0.25
9:38 pm 21:38 Cloudy with Light Snow 30 -1.1 26 -3.3 85 85 ESE 17 28 30.14 1021 2 2 0.01 0.25
9:53 pm 21:53 Cloudy with Light Snow 30 -1.1 26 -3.3 85 85 SE 16 26 30.09 1019 2 2 0.01 0.25
10:00 pm 22:00 Cloudy with Light Snow 30 -1.1 26 -3.3 85 85 SE 15 24 30.13 1020 1 2 0.01 0.25
10:20 pm 22:20 Cloudy with Light Snow 29 -1.7 26 -3.3 89 89 SE 16 26 30.13 1020 2 2 0.01 0.25
10:37 pm 22:37 Windy with Snow Likely 29 -1.7 25 -3.9 85 85 ESE 20 31 30.11 1020 2 3 0.02 0.51
10:51 pm 22:51 Cloudy with Light Snow 28 -2 25 -4 86 86 SE 17 28 30.11 1020 2 2 0.02 0.51
10:53 pm 22:53 Windy with Snow Likely 29 -1.7 25 -3.9 85 85 SE 20 31 30.05 1018 2 2 0.02 0.51
11:15 pm 23:15 Windy with Snow Likely 29 -1.7 25 -3.9 85 85 SE 21 33 30.09 1019 2 2 0.01 0.25
11:30 pm 23:30 Windy with Snow Likely 28 -2 25 -4 86 86 SE 20 31 30.08 1019 2 2 0.00 0.00
11:51 pm 23:51 Cloudy with Light Snow 28 -2 25 -4 86 86 SE 16 26 30.07 1018 3 4 0.01 0.25
11:53 pm 23:53 Cloudy with Light Snow 29 -1.7 25 -3.9 85 85 SE 17 28 29.99 1016 3 5 0.01 0.25
11:59 pm 23:59 Cloudy with Light Snow 29 -1.7 25 -3.9 85 85 SE 18 30 30.06 1018 3 4 0.00 0.00

Powered by AerisWeather